• In Uzbekistan
  • List of Countries
  • For 7 days
  • Water Temperature
  • Satellite Maps
  • Weather Map
  • Weather Widgets
  • user-avatar
    Login

    Hourly Weather Raslovkovo

    Today, 17 February, Sunday

    Time Temperature Precipitation Wind Pressure Humidity
    00:00 -2°C° 0 mm 5 mps 737 mmHg 87%
    01:00 -1°C° 0 mm 5 mps 736 mmHg 86%
    02:00 -1°C° 0 mm 5 mps 735 mmHg 84%
    03:00 -1°C° 0 mm 5 mps 735 mmHg 85%
    04:00 -2°C° 0 mm 6 mps 734 mmHg 87%
    05:00 -2°C° 0 mm 7 mps 734 mmHg 89%
    06:00 -2°C° 0 mm 7 mps 734 mmHg 87%
    07:00 -2°C° 0 mm 7 mps 734 mmHg 85%
    08:00 -2°C° 0 mm 7 mps 733 mmHg 83%
    09:00 -2°C° 0.1 mm 7 mps 733 mmHg 82%
    10:00 -3°C° 0.1 mm 7 mps 733 mmHg 82%
    11:00 -4°C° 0.1 mm 8 mps 733 mmHg 81%
    12:00 -4°C° 0 mm 8 mps 734 mmHg 80%
    13:00 -2°C° 0 mm 8 mps 734 mmHg 79%
    14:00 -2°C° 0 mm 8 mps 734 mmHg 78%
    15:00 -4°C° 0.1 mm 8 mps 734 mmHg 78%
    16:00 -4°C° 0.1 mm 8 mps 735 mmHg 79%
    17:00 -4°C° 0.1 mm 8 mps 735 mmHg 80%
    18:00 -5°C° 0.1 mm 8 mps 736 mmHg 80%
    19:00 -5°C° 0.1 mm 8 mps 737 mmHg 79%
    20:00 -5°C° 0.1 mm 8 mps 737 mmHg 79%
    21:00 -5°C° 0.1 mm 8 mps 738 mmHg 78%
    22:00 -6°C° 0.1 mm 8 mps 740 mmHg 77%
    23:00 -6°C° 0.1 mm 8 mps 741 mmHg 76%

    Tomorrow, 18 February, Monday

    Time Temperature Precipitation Wind Pressure Humidity
    00:00 -7°C° 0 mm 7 mps 742 mmHg 77%
    01:00 -8°C° 0 mm 7 mps 743 mmHg 77%
    02:00 -8°C° 0 mm 7 mps 744 mmHg 78%
    03:00 -9°C° 0 mm 7 mps 744 mmHg 79%
    04:00 -11°C° 0 mm 7 mps 745 mmHg 79%
    05:00 -11°C° 0 mm 7 mps 746 mmHg 80%
    06:00 -11°C° 0 mm 6 mps 747 mmHg 80%
    07:00 -11°C° 0 mm 6 mps 748 mmHg 81%
    08:00 -12°C° 0 mm 5 mps 749 mmHg 82%
    09:00 -11°C° 0 mm 5 mps 750 mmHg 81%
    10:00 -11°C° 0 mm 5 mps 750 mmHg 81%
    11:00 -10°C° 0 mm 5 mps 751 mmHg 80%
    12:00 -10°C° 0 mm 5 mps 751 mmHg 80%
    13:00 -9°C° 0 mm 4 mps 752 mmHg 80%
    14:00 -9°C° 0 mm 4 mps 752 mmHg 79%
    15:00 -9°C° 0 mm 3 mps 752 mmHg 82%
    16:00 -10°C° 0 mm 3 mps 753 mmHg 85%
    17:00 -10°C° 0 mm 2 mps 753 mmHg 87%
    18:00 -12°C° 0 mm 2 mps 753 mmHg 89%
    19:00 -12°C° 0 mm 2 mps 753 mmHg 91%
    20:00 -11°C° 0 mm 1 mps 754 mmHg 93%
    21:00 -11°C° 0 mm 1 mps 754 mmHg 93%
    22:00 -11°C° 0 mm 1 mps 754 mmHg 92%
    23:00 -11°C° 0 mm 1 mps 754 mmHg 92%

    Day after tomorrow, 19 February, Tuesday

    Time Temperature Precipitation Wind Pressure Humidity
    00:00 -13°C° 0 mm 2 mps 753 mmHg 91%
    01:00 -13°C° 0 mm 2 mps 753 mmHg 90%
    02:00 -13°C° 0 mm 3 mps 752 mmHg 89%
    03:00 -12°C° 0 mm 4 mps 751 mmHg 87%
    04:00 -12°C° 0 mm 4 mps 751 mmHg 85%
    05:00 -12°C° 0 mm 5 mps 750 mmHg 83%
    06:00 -12°C° 0 mm 5 mps 749 mmHg 82%
    07:00 -11°C° 0 mm 5 mps 748 mmHg 82%
    08:00 -11°C° 0 mm 6 mps 748 mmHg 81%
    09:00 -9°C° 0 mm 6 mps 747 mmHg 80%
    10:00 -8°C° 0 mm 6 mps 747 mmHg 80%
    11:00 -5°C° 0 mm 6 mps 746 mmHg 79%
    12:00 -4°C° 0 mm 5 mps 746 mmHg 81%
    13:00 -4°C° 0 mm 5 mps 745 mmHg 83%
    14:00 -2°C° 0 mm 5 mps 745 mmHg 84%
    15:00 -2°C° 0 mm 5 mps 744 mmHg 85%
    16:00 -2°C° 0 mm 4 mps 744 mmHg 86%
    17:00 -3°C° 0 mm 4 mps 743 mmHg 86%
    18:00 -3°C° 0 mm 4 mps 743 mmHg 86%
    19:00 -4°C° 0 mm 4 mps 742 mmHg 86%
    20:00 -4°C° 0 mm 4 mps 741 mmHg 86%
    21:00 -5°C° 0 mm 5 mps 741 mmHg 87%
    22:00 -5°C° 0 mm 5 mps 740 mmHg 87%
    23:00 -5°C° 0 mm 5 mps 740 mmHg 88%

    20 February, Wednesday

    Time Temperature Precipitation Wind Pressure Humidity
    00:00 -5°C° 0 mm 5 mps 739 mmHg 88%
    01:00 -4°C° 0 mm 5 mps 738 mmHg 89%
    02:00 -4°C° 0 mm 5 mps 738 mmHg 89%
    03:00 -4°C° 0.1 mm 5 mps 737 mmHg 89%
    04:00 -2°C° 0.1 mm 5 mps 736 mmHg 89%
    05:00 -3°C° 0.1 mm 6 mps 736 mmHg 89%
    06:00 -2°C° 0.3 mm 6 mps 735 mmHg 90%
    07:00 -1°C° 0.3 mm 5 mps 735 mmHg 91%
    08:00 -1°C° 0.3 mm 5 mps 735 mmHg 92%
    09:00 -1°C° 0 mm 5 mps 735 mmHg 94%
    10:00 0°C° 0 mm 5 mps 735 mmHg 95%
    11:00 0°C° 0 mm 5 mps 734 mmHg 97%
    12:00 0°C° 0.1 mm 5 mps 734 mmHg 96%
    13:00 0°C° 0.1 mm 5 mps 734 mmHg 95%
    14:00 0°C° 0.1 mm 4 mps 733 mmHg 95%
    15:00 0°C° 0.1 mm 4 mps 733 mmHg 93%
    16:00 -1°C° 0.1 mm 5 mps 733 mmHg 92%
    17:00 -1°C° 0.1 mm 5 mps 733 mmHg 91%
    18:00 -1°C° 0.2 mm 5 mps 733 mmHg 91%
    19:00 -1°C° 0.2 mm 5 mps 733 mmHg 91%
    20:00 -1°C° 0.2 mm 5 mps 733 mmHg 92%
    21:00 -2°C° 0 mm 4 mps 733 mmHg 90%
    22:00 -3°C° 0 mm 4 mps 733 mmHg 89%
    23:00 -4°C° 0 mm 4 mps 733 mmHg 87%

    21 February, Thursday

    Time Temperature Precipitation Wind Pressure Humidity
    00:00 -5°C° 0 mm 4 mps 733 mmHg 89%
    01:00 -6°C° 0 mm 3 mps 733 mmHg 91%
    02:00 -7°C° 0 mm 3 mps 733 mmHg 92%
    03:00 -8°C° 0 mm 3 mps 733 mmHg 93%
    04:00 -7°C° 0 mm 2 mps 733 mmHg 94%
    05:00 -7°C° 0 mm 2 mps 733 mmHg 95%
    06:00 -6°C° 0.1 mm 2 mps 733 mmHg 95%
    07:00 -6°C° 0.1 mm 2 mps 734 mmHg 95%
    08:00 -3°C° 0.1 mm 1 mps 734 mmHg 95%
    09:00 -6°C° 0.3 mm 3 mps 735 mmHg 93%
    10:00 -7°C° 0.3 mm 5 mps 736 mmHg 91%
    11:00 -8°C° 0.3 mm 7 mps 737 mmHg 89%
    12:00 -8°C° 0.2 mm 7 mps 738 mmHg 88%
    13:00 -9°C° 0.2 mm 7 mps 739 mmHg 87%
    14:00 -11°C° 0.2 mm 7 mps 740 mmHg 86%
    15:00 -11°C° 0.2 mm 7 mps 741 mmHg 86%
    16:00 -12°C° 0.2 mm 7 mps 742 mmHg 85%
    17:00 -12°C° 0.2 mm 7 mps 743 mmHg 85%
    18:00 -13°C° 0.1 mm 7 mps 744 mmHg 84%
    19:00 -13°C° 0.1 mm 7 mps 745 mmHg 83%
    20:00 -13°C° 0.1 mm 7 mps 746 mmHg 82%
    21:00 -14°C° 0.1 mm 7 mps 747 mmHg 81%
    22:00 -14°C° 0.1 mm 7 mps 748 mmHg 81%
    23:00 -15°C° 0.1 mm 6 mps 749 mmHg 81%

    22 February, Friday

    Time Temperature Precipitation Wind Pressure Humidity
    00:00 -16°C° 0 mm 6 mps 749 mmHg 79%
    01:00 -16°C° 0 mm 6 mps 750 mmHg 78%
    02:00 -17°C° 0 mm 6 mps 751 mmHg 77%
    03:00 -17°C° 0 mm 6 mps 752 mmHg 76%
    04:00 -17°C° 0 mm 6 mps 752 mmHg 74%
    05:00 -17°C° 0 mm 6 mps 753 mmHg 73%
    06:00 -17°C° 0 mm 6 mps 754 mmHg 72%
    07:00 -17°C° 0 mm 6 mps 755 mmHg 72%
    08:00 -17°C° 0 mm 6 mps 755 mmHg 72%
    09:00 -16°C° 0 mm 6 mps 756 mmHg 71%
    10:00 -15°C° 0 mm 6 mps 757 mmHg 69%
    11:00 -14°C° 0 mm 6 mps 757 mmHg 68%
    12:00 -14°C° 0 mm 6 mps 758 mmHg 69%
    13:00 -14°C° 0 mm 6 mps 758 mmHg 70%
    14:00 -12°C° 0 mm 5 mps 759 mmHg 70%
    15:00 -13°C° 0 mm 5 mps 759 mmHg 74%
    16:00 -14°C° 0 mm 4 mps 760 mmHg 78%
    17:00 -14°C° 0 mm 4 mps 761 mmHg 82%
    18:00 -14°C° 0 mm 3 mps 761 mmHg 85%
    19:00 -15°C° 0 mm 3 mps 761 mmHg 88%
    20:00 -15°C° 0 mm 3 mps 762 mmHg 91%
    21:00 -16°C° 0 mm 3 mps 762 mmHg 92%
    22:00 -15°C° 0 mm 2 mps 762 mmHg 93%
    23:00 -15°C° 0 mm 2 mps 763 mmHg 94%
    Show more